Lapeer, MI

5:09 AM EDT on August 21, 2017 (GMT -0400)
Lapeer

Weather History for KD95 - October, 2012

Change the Weather History Date:

Wednesday, October 3, 2012

  Actual Average (KFNT) Record (KFNT)
Temperature  
Mean Temperature 61 °F -  
Max Temperature 66 °F 65 °F 89 °F (1953)
Min Temperature 56 °F 45 °F 25 °F (1974)
Degree Days  
Heating Degree Days 4    
Growing Degree Days 11 (Base 50)    
Moisture  
Dew Point 59 °F    
Average Humidity 95    
Maximum Humidity 100    
Minimum Humidity 79    
Precipitation  
Precipitation 0.02 in - - ()
Sea Level Pressure  
Sea Level Pressure 29.99 in    
Wind  
Wind Speed 2 mph ()    
Max Wind Speed 9 mph    
Max Gust Speed -    
Visibility 7.8 miles    
Events Rain    
Averages and records for this station are not official NWS values.
T = Trace of Precipitation, MM = Missing Value Source: Averaged Metar Reports

Daily Weather History Graph

Daily Weather History Graph

Search for Another Location

Airport or City:

Trip Planner

Search our weather history database for the weather conditions in past years. The results will help you decide how hot, cold, wet, or windy it might be!

Date:

Astronomy

Oct. 03, 2012 Rise Set
Actual Time 7:33 AM EDT 7:09 PM EDT
Civil Twilight 7:04 AM EDT 7:38 PM EDT
Nautical Twilight 6:31 AM EDT 8:11 PM EDT
Astronomical Twilight 5:58 AM EDT 8:44 PM EDT
Moon 8:54 PM EDT (10/3) 11:01 AM EDT (10/3)
Length of Visible Light 12h 33m
Length of Day
11h 36m
Waning Gibbous, 89% of the Moon is Illuminated
Oct 3
Waning Gibbous
Oct 8
Last Quarter
Oct 15
New
Oct 21
First Quarter
Oct 29
Full

Hourly Weather History & Observations

Time (EDT) Temp. Dew Point Humidity Pressure Visibility Wind Dir Wind Speed Gust Speed Precip Events Conditions
12:13 AM 57.2 °F 56.8 °F 99% 29.94 in 10.0 mi Calm Calm - N/A Rain Light Rain
12:34 AM 56.8 °F 56.8 °F 100% 29.93 in 10.0 mi Calm Calm - N/A   Overcast
12:53 AM 57.2 °F 57.2 °F 100% 29.93 in 10.0 mi Calm Calm - N/A   Overcast
1:13 AM 57.6 °F 57.6 °F 100% 29.92 in 10.0 mi Calm Calm - N/A   Overcast
1:34 AM 57.2 °F 57.2 °F 100% 29.94 in 10.0 mi Calm Calm - N/A Rain Light Rain
1:53 AM 56.8 °F 56.8 °F 100% 29.93 in 10.0 mi Calm Calm - N/A   Drizzle
2:13 AM 56.3 °F 56.3 °F 100% 29.93 in 10.0 mi Calm Calm - N/A   Overcast
2:34 AM 56.3 °F 56.3 °F 100% 29.93 in 10.0 mi Calm Calm - N/A   Overcast
2:53 AM 56.3 °F 56.3 °F 100% 29.93 in 10.0 mi Calm Calm - N/A   Overcast
3:13 AM 56.7 °F 56.7 °F 100% 29.93 in 10.0 mi Calm Calm - N/A   Overcast
3:33 AM 56.7 °F 56.7 °F 100% 29.93 in 10.0 mi Calm Calm - N/A   Overcast
3:53 AM 57.4 °F 57.4 °F 100% 29.94 in 10.0 mi Calm Calm - N/A   Overcast
4:14 AM 57.4 °F 57.4 °F 100% 29.94 in 10.0 mi Calm Calm - N/A Rain Light Rain
4:33 AM 57.2 °F 57.2 °F 100% 29.94 in 10.0 mi Calm Calm - N/A   Overcast
4:53 AM 57.4 °F 57.4 °F 100% 29.94 in 10.0 mi Calm Calm - N/A   Overcast
5:14 AM 57.6 °F 57.6 °F 100% 29.94 in 10.0 mi Calm Calm - N/A   Overcast
5:33 AM 58.1 °F 58.1 °F 100% 29.95 in 10.0 mi Calm Calm - N/A   Overcast
5:53 AM 57.6 °F 57.6 °F 100% 29.95 in 2.5 mi Calm Calm - N/A   Heavy Drizzle
6:14 AM 57.7 °F 57.7 °F 100% 29.96 in 2.0 mi Calm Calm - 0.02 in Rain Light Rain
6:33 AM 57.4 °F 57.4 °F 100% 29.96 in 2.0 mi Calm Calm - 0.02 in   Overcast
6:53 AM 57.4 °F 57.4 °F 100% 29.96 in 2.0 mi Calm Calm - 0.02 in   Light Drizzle
7:14 AM 57.2 °F 57.2 °F 100% 29.97 in 2.0 mi Calm Calm - N/A   Overcast
7:33 AM 57.4 °F 57.4 °F 100% 29.98 in 2.5 mi Calm Calm - N/A   Overcast
7:53 AM 57.4 °F 57.4 °F 100% 29.98 in 2.5 mi Calm Calm - N/A   Overcast
8:14 AM 57.6 °F 57.6 °F 100% 29.98 in 1.5 mi Calm Calm - N/A   Overcast
8:33 AM 57.7 °F 57.7 °F 100% 29.99 in 1.8 mi Calm Calm - N/A   Overcast
8:53 AM 58.1 °F 58.1 °F 100% 29.99 in 2.0 mi Calm Calm - N/A   Overcast
9:14 AM 58.5 °F 58.5 °F 100% 29.99 in 2.0 mi Calm Calm - N/A   Light Drizzle
9:33 AM 58.6 °F 58.6 °F 100% 30.00 in 2.5 mi Calm Calm - N/A   Overcast
9:53 AM 58.5 °F 58.5 °F 100% 30.00 in 1.8 mi Calm Calm - N/A Rain Rain
10:13 AM 58.6 °F 58.6 °F 100% 30.00 in 1.8 mi Calm Calm - N/A   Overcast
10:33 AM 59.0 °F 59.0 °F 100% 30.00 in 1.0 mi Calm Calm - N/A   Overcast
10:53 AM 59.5 °F 59.5 °F 100% 30.00 in 1.2 mi South 3.5 mph - N/A   Overcast
11:14 AM 59.9 °F 59.9 °F 100% 30.00 in 2.5 mi Calm Calm - N/A   Overcast
11:33 AM 60.8 °F 60.8 °F 100% 30.00 in 4.0 mi Calm Calm - N/A   Overcast
11:53 AM 61.3 °F 61.3 °F 100% 30.00 in 5.0 mi South 3.5 mph - N/A   Overcast
12:13 PM 61.9 °F 61.9 °F 100% 30.00 in 5.0 mi Calm Calm - N/A   Overcast
12:33 PM 62.6 °F 62.6 °F 100% 30.00 in 7.0 mi SSW 3.5 mph - N/A   Overcast
12:54 PM 63.5 °F 63.5 °F 100% 30.00 in 7.0 mi South 4.6 mph - N/A   Overcast
1:13 PM 64.4 °F 64.4 °F 100% 30.00 in 10.0 mi South 3.5 mph - N/A   Overcast
1:54 PM 66.6 °F 63.1 °F 89% 29.99 in 10.0 mi SW 6.9 mph - N/A   Overcast
2:13 PM 65.7 °F 62.6 °F 90% 29.99 in 10.0 mi SSW 8.1 mph - N/A   Overcast
2:33 PM 65.8 °F 63.1 °F 91% 30.00 in 10.0 mi SSW 4.6 mph - N/A   Overcast
2:53 PM 65.5 °F 61.7 °F 88% 30.00 in 10.0 mi SSW 8.1 mph - N/A   Overcast
3:13 PM 65.5 °F 61.2 °F 86% 30.00 in 10.0 mi SSW 9.2 mph - N/A   Overcast
3:34 PM 65.1 °F 61.2 °F 87% 30.00 in 10.0 mi SSW 4.6 mph - N/A   Overcast
3:53 PM 65.7 °F 61.0 °F 85% 29.99 in 10.0 mi SSW 3.5 mph - N/A   Overcast
4:13 PM 65.8 °F 60.3 °F 82% 29.99 in 10.0 mi SSW 4.6 mph - N/A   Overcast
4:34 PM 65.8 °F 59.0 °F 79% 30.00 in 10.0 mi SW 5.8 mph - N/A   Overcast
4:53 PM 65.5 °F 59.0 °F 80% 30.00 in 10.0 mi SW 6.9 mph - N/A   Overcast
5:13 PM 64.9 °F 59.7 °F 83% 30.01 in 10.0 mi SW 6.9 mph - N/A   Overcast
5:34 PM 64.4 °F 60.3 °F 86% 30.01 in 10.0 mi South 4.6 mph - N/A   Overcast
5:53 PM 63.9 °F 60.3 °F 88% 30.02 in 10.0 mi SSW 8.1 mph - N/A   Overcast
6:13 PM 63.9 °F 58.6 °F 83% 30.03 in 10.0 mi South 6.9 mph - N/A   Overcast
6:34 PM 63.5 °F 58.6 °F 84% 30.03 in 10.0 mi South 5.8 mph - N/A   Overcast
6:53 PM 63.1 °F 58.1 °F 84% 30.03 in 10.0 mi SSW 8.1 mph - N/A   Overcast
7:13 PM 62.4 °F 58.1 °F 86% 30.04 in 10.0 mi SSW 9.2 mph - N/A   Overcast
7:34 PM 61.7 °F 57.9 °F 87% 30.04 in 10.0 mi SSW 9.2 mph - N/A   Overcast
7:53 PM 61.2 °F 58.1 °F 90% 30.05 in 10.0 mi SSW 3.5 mph - N/A   Overcast
8:13 PM 60.8 °F 58.3 °F 91% 30.05 in 10.0 mi South 3.5 mph - N/A   Overcast
8:34 PM 60.3 °F 58.5 °F 94% 30.04 in 10.0 mi South 3.5 mph - N/A   Overcast
8:53 PM 60.3 °F 58.3 °F 93% 30.05 in 10.0 mi SSE 3.5 mph - N/A   Overcast
9:13 PM 60.3 °F 58.3 °F 93% 30.06 in 10.0 mi SSE 4.6 mph - N/A   Overcast
9:34 PM 60.1 °F 58.5 °F 94% 30.05 in 10.0 mi SSE 5.8 mph - N/A   Overcast
9:53 PM 60.3 °F 58.5 °F 94% 30.06 in 10.0 mi South 4.6 mph - N/A   Overcast
10:13 PM 60.1 °F 58.6 °F 95% 30.06 in 10.0 mi South 4.6 mph - N/A   Overcast
10:34 PM 60.1 °F 59.0 °F 96% 30.06 in 10.0 mi South 5.8 mph - N/A   Overcast
10:53 PM 60.3 °F 59.0 °F 96% 30.07 in 10.0 mi SSE 5.8 mph - N/A   Overcast
11:13 PM 59.2 °F 58.5 °F 97% 30.07 in 10.0 mi South 4.6 mph - N/A   Mostly Cloudy
11:34 PM 58.1 °F 58.1 °F 100% 30.07 in 10.0 mi South 4.6 mph - N/A   Scattered Clouds
11:53 PM 58.1 °F 58.1 °F 100% 30.06 in 10.0 mi SSE 3.5 mph - N/A   Mostly Cloudy